STARLINK-4601 (53617 NORAD) Tracking and Keplerian Element Data

This shows tracking and keplerian element data for the satellite.

Feedback or suggestion? Click here.




ElementValue
Catalog53617
NameSTARLINK-4601
Epoch Orbit130
Epoch Day324.91667824
Epoch Year2022
RAAN242.5837
Inclination53.2148
Eccentricity0.0001807
Argument of Perigee54.5311
Mean Anonmoly344.9082
Mean Motion15.08850224
Decay Rate-0.00019129
L11 53617U 22104AF 22324.91667824 -.00019129 00000+0 -11866-2 0 9994
L22 53617 53.2148 242.5837 0001807 54.5311 344.9082 15.08850224 1302



Live tracking and technical data element details for STARLINK-4601 (NORAD 53617). STARLINK-4601 can be tracked NOW for your location showing map with azimuth and elevation plus other details from your city location.







IsCatalogInMostPopularTable: catalog: 53617, numindb: 5
Update: records affected: 1



GetName: 53617 STARLINK-4601

Hit Count: updated at: Thu, 08 Dec 2022 19:53:15 GMT